Weather History for Punta Gorda, FL

Change the Weather History Date:

Thursday, April 4, 2013

  Actual Average Record
Temperature  
Mean Temperature 72 °F -  
Max Temperature 79 °F 81 °F 91 °F (2011)
Min Temperature 64 °F 58 °F 45 °F (2005)
Cooling Degree Days 6    
Growing Degree Days 22 (Base 50)    
Moisture  
Dew Point 66 °F    
Average Humidity 90    
Maximum Humidity 100    
Minimum Humidity 74    
Precipitation  
Precipitation 0.97 in - - ()
Sea Level Pressure  
Sea Level Pressure 30.03 in    
Wind  
Wind Speed 8 mph (NNE)    
Max Wind Speed 28 mph    
Max Gust Speed 34 mph    
Visibility 8 miles    
Events Rain , Thunderstorm    
Averages and records for this station are not official NWS values.
T = Trace of Precipitation, MM = Missing Value Source: NWS Daily Summary

Daily Weather History Graph

Daily Weather History Graph

Search for Another Location

Airport:

Trip Planner

Search our weather history database for the weather conditions in past years. The results will help you decide how hot, cold, wet, or windy it might be!

Date:

Astronomy

Apr. 04, 2013 Rise Set
Actual Time 7:15 AM EDT 7:46 PM EDT
Civil Twilight 6:51 AM EDT 8:10 PM EDT
Nautical Twilight 6:24 AM EDT 8:37 PM EDT
Astronomical Twilight 5:56 AM EDT 9:05 PM EDT
Moon 3:10 AM EDT (4/4) 2:32 PM EDT (4/4)
Length of Visible Light 13h 18m
Length of Day
12h 31m
Waning Crescent, 34% of the Moon is Illuminated
Apr 4
Waning Crescent
Apr 10
New
Apr 18
First Quarter
Apr 25
Full
May 2
Last Quarter

Hourly Weather History & Observations

Time (EDT) Temp. Dew Point Humidity Pressure Visibility Wind Dir Wind Speed Gust Speed Precip Events Conditions
12:53 AM 72.0 °F 68.0 °F 87% 30.04 in 10.0 mi East 3.5 mph - N/A   Mostly Cloudy
1:53 AM 72.0 °F 66.9 °F 84% 30.03 in 10.0 mi SE 6.9 mph - N/A   Mostly Cloudy
2:53 AM 71.1 °F 66.9 °F 87% 30.01 in 10.0 mi SSE 3.5 mph - N/A   Scattered Clouds
3:53 AM 71.1 °F 66.9 °F 87% 30.00 in 10.0 mi SSE 5.8 mph - N/A   Scattered Clouds
4:53 AM 71.1 °F 66.9 °F 87% 30.00 in 10.0 mi South 4.6 mph - N/A   Partly Cloudy
5:53 AM 71.1 °F 68.0 °F 90% 30.01 in 8.0 mi SSE 5.8 mph - 0.02 in Rain Light Rain
6:53 AM 70.0 °F 68.0 °F 93% 30.00 in 9.0 mi Calm Calm - 0.02 in   Mostly Cloudy
7:53 AM 70.0 °F 68.0 °F 93% 30.00 in 7.0 mi Calm Calm - 0.00 in   Mostly Cloudy
8:53 AM 71.1 °F 69.1 °F 93% 30.01 in 6.0 mi NNE 6.9 mph - N/A   Mostly Cloudy
9:07 AM 71.6 °F 69.8 °F 94% 30.02 in 7.0 mi NNE 5.8 mph - N/A   Mostly Cloudy
9:53 AM 73.0 °F 70.0 °F 90% 30.02 in 9.0 mi East 5.8 mph - N/A   Overcast
10:02 AM 73.4 °F 69.8 °F 88% 30.02 in 9.0 mi ENE 4.6 mph - N/A   Overcast
10:33 AM 73.4 °F 69.8 °F 88% 30.02 in 10.0 mi East 4.6 mph - N/A   Overcast
10:53 AM 75.9 °F 70.0 °F 82% 30.03 in 10.0 mi SSE 5.8 mph - N/A   Scattered Clouds
11:53 AM 77.0 °F 70.0 °F 79% 30.05 in 10.0 mi Calm Calm - N/A   Scattered Clouds
12:53 PM 79.0 °F 70.0 °F 74% 30.05 in 10.0 mi SSW 9.2 mph - N/A   Mostly Cloudy
1:19 PM 78.8 °F 69.8 °F 74% 30.04 in 10.0 mi SSW 9.2 mph - N/A   Mostly Cloudy
1:53 PM 73.9 °F 66.0 °F 76% 30.06 in 10.0 mi NNW 25.3 mph 31.1 mph N/A   Overcast
1:59 PM 68.0 °F 62.6 °F 83% 30.05 in 9.0 mi NNW 27.6 mph 34.5 mph 0.00 in Rain , Thunderstorm Light Rain
2:12 PM 64.4 °F 62.6 °F 94% 30.06 in 1.0 mi North 19.6 mph 29.9 mph 0.26 in Rain , Thunderstorm Heavy Thunderstorms and Rain
2:20 PM 64.4 °F 64.4 °F 100% 30.06 in 0.8 mi NNW 17.3 mph 26.5 mph 0.36 in Rain , Thunderstorm Heavy Thunderstorms and Rain
2:26 PM 64.4 °F 64.4 °F 100% 30.04 in 2.0 mi NNW 17.3 mph - 0.39 in Rain , Thunderstorm Heavy Thunderstorms and Rain
2:36 PM 64.4 °F 64.4 °F 100% 30.06 in 4.0 mi NNW 13.8 mph - 0.42 in Rain , Thunderstorm Heavy Rain
2:45 PM 66.2 °F 64.4 °F 94% 30.05 in 1.8 mi NNW 15.0 mph - 0.53 in Rain , Thunderstorm Heavy Rain
2:53 PM 66.0 °F 64.0 °F 93% 30.07 in 1.2 mi NW 13.8 mph - 0.63 in Rain , Thunderstorm Heavy Rain
3:00 PM 66.2 °F 64.4 °F 94% 30.07 in 1.8 mi NNW 13.8 mph - 0.06 in Rain , Thunderstorm Heavy Rain
3:07 PM 66.2 °F 64.4 °F 94% 30.06 in 3.0 mi NNW 12.7 mph 20.7 mph 0.08 in Rain , Thunderstorm Heavy Rain
3:18 PM 66.2 °F 64.4 °F 94% 30.06 in 4.0 mi NNW 15.0 mph - 0.11 in Rain Heavy Rain
3:53 PM 66.9 °F 64.9 °F 93% 30.07 in 10.0 mi NNW 8.1 mph - 0.14 in Rain Heavy Rain
4:02 PM 66.2 °F 64.4 °F 94% 30.06 in 10.0 mi NNW 12.7 mph - 0.00 in Rain , Thunderstorm Heavy Rain
4:17 PM 66.2 °F 64.4 °F 94% 30.05 in 8.0 mi North 10.4 mph - 0.02 in Rain Heavy Rain
4:53 PM 66.0 °F 64.0 °F 93% 29.91 in 10.0 mi ESE 23.0 mph 27.6 mph 0.03 in Rain Heavy Rain
5:53 PM 68.0 °F 64.9 °F 90% 29.93 in 10.0 mi NE 6.9 mph - 0.00 in   Clear
6:53 PM 68.0 °F 64.0 °F 87% 29.91 in 10.0 mi East 6.9 mph - N/A   Clear
8:53 PM 66.9 °F 64.9 °F 93% 29.97 in 10.0 mi Calm Calm - N/A   Clear
10:53 PM 66.0 °F 64.0 °F 93% 30.02 in 10.0 mi SSE 5.8 mph - 0.05 in Rain Light Rain
11:53 PM 66.0 °F 64.9 °F 96% 30.03 in 8.0 mi South 6.9 mph - 0.08 in Rain , Thunderstorm Light Thunderstorms and Rain